DECAYED
Showing default

ASTROCAST-0103, 47487 (Decayed)

Orbit data source: Space-Track

ASTROCAST-0103, 47487 was a payload satellite owned by Astrocast (CH) in LEO that was launched on Sun, 24 Jan 2021 UTC via an FALCON 9 launch vehicle from the Air Force Eastern Test Range (AFETR). Payload-class satellites include a variety of spacecraft equipped with specific instruments for various scientific and technological missions. These include communications satellites like Starlink; space stations such as the ISS; scientific satellites like the Hubble; Earth observation satellites from companies like Planet Labs, Umbra, and HawkEye 360; GPS; miniature CubeSats for education and research; and military/defense satellites.

Not visible in the next 10 days
Identifier
47487, 2021-006CC
Orbit
Decayed
Country
Flag of CHCH / SWTZ
Related business
Manufacturer
Astrocast
Mission
Decayed Commercial Communications
Bus & Motor
CUBESAT 3U, Unknown motor
Mass
5 kg wet, 5 kg dry
Launch date (UTC)
2021-01-24 (6 years ago)
Launch vehicle
FALCON 9
Launch site
Air Force Eastern Test Range (AFETR)
Object type
Payload
Rocket body
Debris
Shape & HBR
Box, 0.1 m
Radar Cross Section
0.035 m², Medium (>0.1 m² and < 1m²)

Expand to show TLE details & history
Last TLE update: 3 months ago

TLE from 3 months ago
0 ASTROCAST-0103
1 47487U 21006CC  26123.02177090  .09787114  23920-5  21229-2 0  9995
2 47487  97.2367 195.6334 0013101 276.8436  83.1368 16.30381751294121
Epoch: 2026-05-03T00:31Z
TLE epoch observation values (Epoch: 2026-05-03T00:31:21.005Z)
Latitude
-0.00005°
Longitude
-33.13541°
Altitude
193.74 km
Speed
7.791 km/s
True Right ascension
13h 02m 32s
True Declination
0° 00' 00"
Sunlit
Object was in full shadow at epoch
Visualization orbit readout
Latitude
Unknown
Longitude
Unknown
Altitude
Unknown
Speed
Unknown
Apparent Right ascension
Unknown
Apparent Declination
Unknown
Sunlit
N/A
Visualization observer readout
Local Sidereal Time
16:48:54
Azimuth
Unknown
Elevation
Unknown
Doppler factor
Unknown
Orbital elements
Apogee altitude
196.93 km
Perigee altitude
179.724 km
Semi-major axis
6,566.464 km
Eccentricity
0.00131
Inclination
97.2367°
RAAN
195.6334°
Arg. of periapsis
276.8436°
True anomaly
83.28588°
Mean anomaly
83.1368°
Eccentric anomaly
83.21134°
Mean motion
4.07893 °/min
Orbital period
88.26 mins
BSTAR
0.0021229
Loading maneuver chart data...
Computing Atmospheric mass density...

Documentation

Showing up to 5 results
|